• Join FlightAware (Why Join?)
  • Login
  • US Flag 
06:46PM EDT


 

Airport Tracker/Info


-or-


 

Live Flight TrackerFlight Track Log ✈ LBQ792 ✈ 30-Apr-2013 ✈ KELM - KSYR

Flight Track Log - Related Links

Times and Time Zones

All times are in EDT time to prevent confusion due to time zone crossing. See the LBQ792 flight status page for this flight to view local times or setup timezone preferences in your user account.

Time Position Orientation Groundspeed Altitude Reporting Facility
EDT Latitude Longitude Course Direction KTS MPH feet Rate Location/Type
09:24PM 42.3779 -76.6958 30° Northeast  Level FlightAware Approximate
09:24PM 42.3781 -76.7747 30° Northeast 239 275 7,000  Level Boston Center
09:25PM 42.4164 -76.6654 30° Northeast  Level FlightAware Approximate
09:25PM 42.3997 -76.7508 39° Northeast 240 276 7,000  Level Boston Center
09:26PM 42.4548 -76.6350 30° Northeast  Level FlightAware Approximate
09:26PM 42.4603 -76.6986 32° Northeast 242 278 7,000  Level Boston Center
09:27PM 42.4933 -76.6045 30° Northeast  Level FlightAware Approximate
09:27PM 42.5142 -76.6461 36° Northeast 241 277 7,000  Level Boston Center
09:28PM 42.5317 -76.5740 30° Northeast  Level FlightAware Approximate
09:28PM 42.5703 -76.5992 32° Northeast 242 278 7,000  Level Boston Center
09:29PM 42.5701 -76.5435 30° Northeast  Level FlightAware Approximate
09:29PM 42.6264 -76.5464 35° Northeast 241 277 7,000  Level Boston Center
09:30PM 42.6086 -76.5130 30° Northeast  Level FlightAware Approximate
09:30PM 42.6822 -76.4992 32° Northeast 241 277 7,000  Level Boston Center
09:31PM 42.7383 -76.4436 36° Northeast 242 278 7,000  Level Boston Center
09:32PM 42.7964 -76.3964 31° Northeast 241 277 7,000  Level Boston Center
09:33PM 42.8503 -76.3431 36° Northeast 242 278 7,000 -720 Level Boston Center
09:34PM 42.9128 -76.2875 33° Northeast 258 297 5,600 -1,440 Descending Boston Center
09:35PM 42.9772 -76.2264 35° Northeast 277 319 4,200 -1,020 Descending Boston Center
09:36PM 43.0475 -76.1881 22° Northeast 272 313 3,600 -1,200 Descending Boston Center
09:37PM 43.1003 -76.1628 19° North 182 209 1,800 -1,800 Descending Boston Center
09:39PM 43.1000 -76.1000 36° Northeast  Level FlightAware Approximate
09:46PM 43.1112 -76.1063 36° Northeast  Level Estimated
09:47PM 43.1112 -76.1063 36° Northeast  Level Estimated
09:48PM 43.1112 -76.1063 36° Northeast  Level Estimated
09:49PM 43.1112 -76.1063 36° Northeast  Level Estimated
09:50PM 43.1112 -76.1063 36° Northeast  Level Estimated
09:51PM 43.1112 -76.1063 36° Northeast  Level Estimated